Content
SEND FEEDBACK

Daily
Averages
Monthly
Summary
United Kingdom

LLANBABO, WALES


Home > Europe > United Kingdom > Wales
Elevation: 197 feet     Latitude: 53 15N     Longitude: 004 22W

WEATHER
 
SELECT A DAY
Number of Records: 192,297;   Date Range: 7/1/96 - 12/25/14
 
SHARE

PRINT THIS DATA

[ ← Previous Day ]
WEATHER ALMANAC - JANUARY 31, 2013
[ Next Day → ]
[ °C ]   °F
Weather ElementAverageHighLow
Temperature46.5 °F49 °F (2:50 pm)42.8 °F (4:50 pm)
Dewpoint39 °F44.6 °F (1:50 am)35.6 °F (6:50 am)
Humidity73.3 %93 % (1:50 am)57 % (11:50 am)
Barometer29.68 in29.78 in (8:50 pm)29.56 in (3:50 am)
Wind Speed26.8 mph38 mph (1:50 am)
Wind Gust49.5 mph (1:50 am)
Weather ElementAverage
Visibility7.7 mi
Wind DirectionWSW (240.3 °)

Weather ElementTotal
Precipitation---
Heating Degree Days19.1 (Base 65)
Averaged from 31 records on January 31, 2013
WEATHER CONDITIONS BREAKOUT
WIND DIRECTION BREAKOUT
WEATHER BY HOUR - JANUARY 31, 2013
[ °C ]   °F
Local TimeTemperatureDewpointHumidityBarometerVisibilityWind DirectionWind SpeedGust SpeedPrecipitationEventsConditions
1:50 AM46.4 °F44.6 °F93 %29.62 in2.5 miSouth (170°)38.0 mph49.5 mphRainHeavy Rain
2:50 AM46.0 °F42.0 °F83 %29.61 in4.0 miSSW (210°)33.4 mphRainLight Rain
2:50 AM46.4 °F42.8 °F87 %29.59 in3.7 miSSW (210°)33.4 mphHaze
3:50 AM48.2 °F41.0 °F76 %29.56 inSW (220°)28.8 mphClear
4:50 AM48.2 °F41.0 °F76 %29.56 in6.2 miSW (230°)31.1 mphPartly Cloudy
5:50 AM47.0 °F38.0 °F63 %29.58 in9.0 miWSW (240°)32.2 mphPartly Cloudy
5:50 AM48.2 °F39.2 °F71 %29.56 in6.2 miWSW (240°)32.2 mph44.9 mphPartly Cloudy
6:50 AM46.4 °F35.6 °F66 %29.56 in6.2 miWSW (250°)33.4 mph46.0 mphPartly Cloudy
7:50 AM46.4 °F35.6 °F66 %29.59 in6.2 miWSW (250°)35.7 mphPartly Cloudy
8:50 AM45.0 °F37.0 °F65 %29.65 in16.0 miWSW (250°)29.9 mphScattered Clouds
8:50 AM44.6 °F37.4 °F76 %29.62 in6.2 miWSW (250°)29.9 mphPartly Cloudy
9:50 AM46.4 °F37.4 °F71 %29.65 in6.2 miWSW (250°)29.9 mphPartly Cloudy
10:50 AM46.4 °F37.4 °F71 %29.68 in6.2 miWSW (250°)31.1 mphPartly Cloudy
11:50 AM48.0 °F37.0 °F57 %29.74 in12.0 miWSW (250°)26.5 mphScattered Clouds
11:50 AM48.2 °F37.4 °F66 %29.71 in6.2 miWSW (250°)26.5 mphPartly Cloudy
12:50 PM48.2 °F39.2 °F71 %29.74 in6.2 miWSW (240°)28.8 mphScattered Clouds
1:50 PM48.2 °F39.2 °F71 %29.74 in6.2 miWSW (250°)26.5 mphPartly Cloudy
2:50 PM49.0 °F38.0 °F57 %29.74 in12.0 miWSW (250°)21.9 mphScattered Clouds
2:50 PM48.2 °F39.2 °F71 %29.74 in6.2 miWSW (250°)21.9 mphPartly Cloudy
3:50 PM48.2 °F39.2 °F71 %29.74 in6.2 miWSW (250°)24.2 mphScattered Clouds
4:50 PM42.8 °F37.4 °F81 %29.74 in6.2 miWest (260°)19.6 mph39.1 mphRainLight Rain Showers
5:50 PM46.0 °F40.0 °F72 %29.77 in12.0 miWSW (250°)17.3 mphHailLight Hail Showers
5:50 PM46.4 °F39.2 °F76 %29.74 inWSW (250°)17.3 mphClear
6:50 PM46.4 °F39.2 °F76 %29.77 inWSW (250°)24.2 mphClear
7:50 PM44.6 °F39.2 °F81 %29.77 in6.2 miWSW (240°)23.0 mphMostly Cloudy
8:50 PM46.0 °F39.0 °F67 %29.78 in16.0 miWSW (240°)23.0 mphPartly Cloudy
8:50 PM46.4 °F39.2 °F76 %29.77 inWSW (240°)23.0 mphClear
9:50 PM44.6 °F39.2 °F81 %29.74 in6.2 miWSW (240°)21.9 mphMostly Cloudy
10:50 PM44.6 °F39.2 °F81 %29.74 inWSW (240°)23.0 mphClear
11:50 PM45.0 °F39.0 °F72 %29.72 in12.0 miWSW (240°)21.9 mphOvercast
11:50 PM44.6 °F39.2 °F81 %29.71 inWSW (240°)21.9 mphClear
Hourly data recorded from EGOV, located miles away from Llanbabo, Wales







STORIES FROM OUR PARTNERS